GENESIS 2 (31789 NORAD) Tracking and Keplerian Element Data

This shows tracking and keplerian element data for the satellite.

Feedback or suggestion? Click here.




ElementValue
Catalog31789
NameGENESIS 2
Epoch Orbit91355
Epoch Day13.19323472
Epoch Year2024
RAAN14.9884
Inclination64.4929
Eccentricity0.0040183
Argument of Perigee234.2533
Mean Anonmoly125.4857
Mean Motion15.30983711
Decay Rate0.00016613
L11 31789U 07028A 24013.19323472 .00016613 00000+0 54492-3 0 9999
L22 31789 64.4929 14.9884 0040183 234.2533 125.4857 15.30983711913559



Live tracking and technical data element details for GENESIS 2 (NORAD 31789). GENESIS 2 can be tracked NOW for your location showing map with azimuth and elevation plus other details from your city location.







IsCatalogInMostPopularTable: catalog: 31789, numindb: 557
Update: records affected: 1



GetName: 31789 GENESIS 2

Hit Count: updated at: Fri, 19 Apr 2024 13:02:59 GMT